Time,TemperatureF,DewpointF,PressureIn,WindDirection,WindDirectionDegrees,WindSpeedMPH,WindSpeedGustMPH,Humidity,HourlyPrecipIn,Conditions,Clouds,dailyrainin,SoftwareType,DateUTC
2013-03-12 00:04:00,40.0,39.0,29.80,NNE,22,3.0,9.0,96,0.00,,,0.00,Weather View 32 v70,2013-03-12 04:04:00,
2013-03-12 00:09:00,40.0,39.0,29.80,North,360,3.0,9.0,96,0.00,,,0.00,Weather View 32 v70,2013-03-12 04:09:00,
2013-03-12 00:14:00,40.0,39.0,29.79,North,360,4.0,9.0,96,0.00,,,0.00,Weather View 32 v70,2013-03-12 04:14:00,
2013-03-12 00:19:00,40.0,39.0,29.79,North,360,2.0,9.0,96,0.00,,,0.00,Weather View 32 v70,2013-03-12 04:19:00,
2013-03-12 00:24:00,40.0,39.0,29.79,ESE,112,2.0,9.0,96,0.00,,,0.00,Weather View 32 v70,2013-03-12 04:24:00,
2013-03-12 00:29:00,40.0,39.0,29.79,North,360,3.0,9.0,96,0.00,,,0.00,Weather View 32 v70,2013-03-12 04:29:00,
2013-03-12 00:34:00,40.0,39.0,29.78,NE,45,3.0,9.0,96,0.00,,,0.00,Weather View 32 v70,2013-03-12 04:34:00,
2013-03-12 00:39:00,40.0,39.0,29.78,East,90,2.0,7.0,96,0.00,,,0.00,Weather View 32 v70,2013-03-12 04:39:00,
2013-03-12 00:44:00,40.0,39.0,29.78,SE,135,2.0,7.0,96,0.00,,,0.00,Weather View 32 v70,2013-03-12 04:44:00,
2013-03-12 00:49:00,40.0,39.0,29.78,North,360,2.0,7.0,96,0.00,,,0.00,Weather View 32 v70,2013-03-12 04:49:00,
2013-03-12 00:54:00,40.0,39.0,29.78,NE,45,2.0,7.0,96,0.00,,,0.00,Weather View 32 v70,2013-03-12 04:54:00,
2013-03-12 00:59:00,40.0,39.0,29.78,NW,315,6.0,7.0,96,0.00,,,0.00,Weather View 32 v70,2013-03-12 04:59:00,
2013-03-12 01:04:00,40.0,39.0,29.78,SE,135,2.0,7.0,96,0.00,,,0.00,Weather View 32 v70,2013-03-12 05:04:00,
2013-03-12 01:09:00,40.0,39.0,29.78,ESE,112,1.0,7.0,96,0.00,,,0.00,Weather View 32 v70,2013-03-12 05:09:00,
2013-03-12 01:14:00,40.0,39.0,29.78,East,90,2.0,7.0,96,0.00,,,0.00,Weather View 32 v70,2013-03-12 05:14:00,
2013-03-12 01:19:00,40.0,39.0,29.78,East,90,2.0,7.0,96,0.00,,,0.00,Weather View 32 v70,2013-03-12 05:19:00,
2013-03-12 01:25:00,40.0,39.0,29.78,North,360,4.0,7.0,96,0.00,,,0.00,Weather View 32 v70,2013-03-12 05:25:00,
2013-03-12 01:34:00,40.0,39.0,29.78,NE,45,2.0,7.0,96,0.00,,,0.00,Weather View 32 v70,2013-03-12 05:34:00,
2013-03-12 01:39:00,40.0,39.0,29.78,West,270,1.0,8.0,96,0.00,,,0.00,Weather View 32 v70,2013-03-12 05:39:00,
2013-03-12 01:44:00,40.0,39.0,29.78,East,90,0.0,9.0,96,0.00,,,0.00,Weather View 32 v70,2013-03-12 05:44:00,
2013-03-12 01:49:00,40.0,39.0,29.78,NE,45,3.0,9.0,96,0.00,,,0.00,Weather View 32 v70,2013-03-12 05:49:00,
2013-03-12 01:54:00,41.0,39.9,29.77,East,90,3.0,9.0,96,0.00,,,0.00,Weather View 32 v70,2013-03-12 05:54:00,
2013-03-12 01:59:00,40.0,39.0,29.77,East,90,3.0,9.0,96,0.00,,,0.00,Weather View 32 v70,2013-03-12 05:59:00,
2013-03-12 02:04:00,41.0,39.9,29.77,NE,45,6.0,9.0,96,0.00,,,0.00,Weather View 32 v70,2013-03-12 06:04:00,
2013-03-12 02:09:00,41.0,39.9,29.77,East,90,3.0,9.0,96,0.00,,,0.00,Weather View 32 v70,2013-03-12 06:09:00,
2013-03-12 02:14:00,41.0,39.9,29.77,East,90,2.0,9.0,96,0.00,,,0.00,Weather View 32 v70,2013-03-12 06:14:00,
2013-03-12 02:19:00,41.0,39.9,29.77,SE,135,3.0,9.0,96,0.00,,,0.00,Weather View 32 v70,2013-03-12 06:19:00,
2013-03-12 02:24:00,41.0,39.9,29.76,SE,135,1.0,9.0,96,0.00,,,0.00,Weather View 32 v70,2013-03-12 06:24:00,
2013-03-12 02:29:00,41.0,39.9,29.76,East,90,1.0,9.0,96,0.00,,,0.00,Weather View 32 v70,2013-03-12 06:29:00,
2013-03-12 02:34:00,41.0,39.9,29.76,ENE,67,4.0,9.0,96,0.00,,,0.00,Weather View 32 v70,2013-03-12 06:34:00,
2013-03-12 02:39:00,41.0,39.9,29.76,SE,135,2.0,9.0,96,0.00,,,0.00,Weather View 32 v70,2013-03-12 06:39:00,
2013-03-12 02:44:00,41.0,39.9,29.76,ESE,112,2.0,8.0,96,0.00,,,0.00,Weather View 32 v70,2013-03-12 06:44:00,
2013-03-12 02:49:00,41.0,39.9,29.76,SE,135,4.0,8.0,96,0.00,,,0.00,Weather View 32 v70,2013-03-12 06:49:00,
2013-03-12 02:54:00,41.0,39.9,29.76,SE,135,0.0,8.0,96,0.00,,,0.00,Weather View 32 v70,2013-03-12 06:54:00,
2013-03-12 02:59:00,41.0,39.9,29.76,SE,135,5.0,8.0,96,0.00,,,0.00,Weather View 32 v70,2013-03-12 06:59:00,
2013-03-12 03:04:00,42.0,40.9,29.74,SSW,202,1.0,8.0,96,0.00,,,0.00,Weather View 32 v70,2013-03-12 07:04:00,
2013-03-12 03:09:00,41.0,39.9,29.74,SSE,157,0.0,8.0,96,0.00,,,0.00,Weather View 32 v70,2013-03-12 07:09:00,
2013-03-12 03:14:00,42.0,40.9,29.73,South,180,6.0,7.0,96,0.00,,,0.00,Weather View 32 v70,2013-03-12 07:14:00,
2013-03-12 03:19:00,41.0,39.9,29.73,SSE,157,5.0,7.0,96,0.00,,,0.00,Weather View 32 v70,2013-03-12 07:19:00,
2013-03-12 03:24:00,42.0,40.9,29.72,SW,225,3.0,7.0,96,0.00,,,0.00,Weather View 32 v70,2013-03-12 07:24:00,
2013-03-12 03:29:00,41.0,39.9,29.72,West,270,2.0,8.0,96,0.00,,,0.00,Weather View 32 v70,2013-03-12 07:29:00,
2013-03-12 03:34:00,42.0,40.9,29.72,SE,135,2.0,8.0,96,0.00,,,0.00,Weather View 32 v70,2013-03-12 07:34:00,
2013-03-12 03:39:00,41.0,39.9,29.72,SE,135,4.0,8.0,96,0.00,,,0.00,Weather View 32 v70,2013-03-12 07:39:00,
2013-03-12 03:44:00,42.0,40.9,29.72,SE,135,1.0,8.0,96,0.00,,,0.00,Weather View 32 v70,2013-03-12 07:44:00,
2013-03-12 03:49:00,41.0,39.9,29.72,South,180,1.0,8.0,96,0.00,,,0.00,Weather View 32 v70,2013-03-12 07:49:00,
2013-03-12 03:54:00,42.0,40.9,29.72,South,180,2.0,8.0,96,0.00,,,0.00,Weather View 32 v70,2013-03-12 07:54:00,
2013-03-12 03:59:00,41.0,39.9,29.72,SE,135,1.0,8.0,96,0.00,,,0.00,Weather View 32 v70,2013-03-12 07:59:00,
2013-03-12 04:04:00,42.0,40.9,29.72,SSE,157,2.0,8.0,96,0.00,,,0.00,Weather View 32 v70,2013-03-12 08:04:00,
2013-03-12 04:09:00,41.0,39.9,29.72,SE,135,2.0,8.0,96,0.00,,,0.00,Weather View 32 v70,2013-03-12 08:09:00,
2013-03-12 04:14:00,42.0,40.9,29.72,SW,225,0.0,8.0,96,0.00,,,0.00,Weather View 32 v70,2013-03-12 08:14:00,
2013-03-12 04:19:00,41.0,39.9,29.72,South,180,2.0,8.0,96,0.00,,,0.00,Weather View 32 v70,2013-03-12 08:19:00,
2013-03-12 04:24:00,42.0,40.9,29.72,South,180,3.0,8.0,96,0.00,,,0.00,Weather View 32 v70,2013-03-12 08:24:00,
2013-03-12 04:29:00,41.0,39.9,29.72,South,180,2.0,6.0,96,0.00,,,0.00,Weather View 32 v70,2013-03-12 08:29:00,
2013-03-12 04:34:00,42.0,40.9,29.72,South,180,0.0,6.0,96,0.00,,,0.00,Weather View 32 v70,2013-03-12 08:34:00,
2013-03-12 04:39:00,41.0,39.9,29.72,South,180,0.0,6.0,96,0.00,,,0.00,Weather View 32 v70,2013-03-12 08:39:00,
2013-03-12 04:44:00,41.0,39.9,29.72,South,180,0.0,6.0,96,0.00,,,0.00,Weather View 32 v70,2013-03-12 08:44:00,
2013-03-12 04:49:00,41.0,39.9,29.72,South,180,0.0,6.0,96,0.00,,,0.00,Weather View 32 v70,2013-03-12 08:49:00,
2013-03-12 04:54:00,41.0,39.9,29.72,South,180,0.0,5.0,96,0.00,,,0.00,Weather View 32 v70,2013-03-12 08:54:00,
2013-03-12 04:59:00,41.0,39.9,29.72,SW,225,0.0,5.0,96,0.00,,,0.00,Weather View 32 v70,2013-03-12 08:59:00,
2013-03-12 05:04:00,41.0,39.9,29.72,SW,225,0.0,5.0,96,0.00,,,0.00,Weather View 32 v70,2013-03-12 09:04:00,
2013-03-12 05:09:00,41.0,39.9,29.72,SW,225,0.0,5.0,96,0.00,,,0.00,Weather View 32 v70,2013-03-12 09:09:00,
2013-03-12 05:14:00,41.0,39.9,29.72,SW,225,0.0,5.0,96,0.00,,,0.00,Weather View 32 v70,2013-03-12 09:14:00,
2013-03-12 05:19:00,41.0,39.9,29.72,SW,225,1.0,5.0,96,0.00,,,0.00,Weather View 32 v70,2013-03-12 09:19:00,
2013-03-12 05:24:00,41.0,39.9,29.72,SW,225,0.0,5.0,96,0.00,,,0.00,Weather View 32 v70,2013-03-12 09:24:00,
2013-03-12 05:30:00,41.0,39.9,29.72,SW,225,0.0,5.0,96,0.00,,,0.00,Weather View 32 v70,2013-03-12 09:30:00,
2013-03-12 05:35:00,41.0,39.9,29.72,SW,225,0.0,3.0,96,0.00,,,0.00,Weather View 32 v70,2013-03-12 09:35:00,
2013-03-12 05:44:00,41.0,39.9,29.72,South,180,0.0,4.0,96,0.00,,,0.00,Weather View 32 v70,2013-03-12 09:44:00,
2013-03-12 05:49:00,41.0,39.9,29.72,South,180,0.0,4.0,96,0.00,,,0.00,Weather View 32 v70,2013-03-12 09:49:00,
2013-03-12 05:54:00,41.0,39.9,29.71,South,180,0.0,4.0,96,0.00,,,0.00,Weather View 32 v70,2013-03-12 09:54:00,
2013-03-12 05:59:00,41.0,39.9,29.71,South,180,3.0,4.0,96,0.00,,,0.00,Weather View 32 v70,2013-03-12 09:59:00,
2013-03-12 06:04:00,41.0,39.9,29.71,South,180,1.0,4.0,96,0.00,,,0.00,Weather View 32 v70,2013-03-12 10:04:00,
2013-03-12 06:09:00,41.0,39.9,29.71,South,180,0.0,4.0,96,0.00,,,0.00,Weather View 32 v70,2013-03-12 10:09:00,
2013-03-12 06:14:00,41.0,39.9,29.71,SSW,202,2.0,4.0,96,0.00,,,0.00,Weather View 32 v70,2013-03-12 10:14:00,
2013-03-12 06:19:00,41.0,39.9,29.71,South,180,2.0,4.0,96,0.00,,,0.00,Weather View 32 v70,2013-03-12 10:19:00,
2013-03-12 06:24:00,41.0,39.9,29.71,South,180,0.0,4.0,96,0.00,,,0.00,Weather View 32 v70,2013-03-12 10:24:00,
2013-03-12 06:29:00,41.0,39.9,29.71,South,180,1.0,4.0,96,0.00,,,0.00,Weather View 32 v70,2013-03-12 10:29:00,
2013-03-12 06:34:00,41.0,39.9,29.71,South,180,3.0,6.0,96,0.00,,,0.00,Weather View 32 v70,2013-03-12 10:34:00,
2013-03-12 06:39:00,41.0,39.9,29.71,South,180,0.0,6.0,96,0.00,,,0.00,Weather View 32 v70,2013-03-12 10:39:00,
2013-03-12 06:44:00,41.0,39.9,29.71,SE,135,1.0,6.0,96,0.00,,,0.00,Weather View 32 v70,2013-03-12 10:44:00,
2013-03-12 06:49:00,41.0,39.9,29.71,West,270,0.0,6.0,96,0.00,,,0.00,Weather View 32 v70,2013-03-12 10:49:00,
2013-03-12 06:54:00,41.0,39.9,29.71,South,180,2.0,6.0,96,0.00,,,0.00,Weather View 32 v70,2013-03-12 10:54:00,
2013-03-12 06:59:00,41.0,39.9,29.71,South,180,2.0,6.0,96,0.00,,,0.00,Weather View 32 v70,2013-03-12 10:59:00,
2013-03-12 07:04:00,41.0,39.9,29.70,SW,225,3.0,6.0,96,0.00,,,0.00,Weather View 32 v70,2013-03-12 11:04:00,
2013-03-12 07:09:00,41.0,39.9,29.70,South,180,3.0,6.0,96,0.00,,,0.00,Weather View 32 v70,2013-03-12 11:09:00,
2013-03-12 07:14:00,41.0,39.9,29.70,South,180,2.0,6.0,96,0.00,,,0.00,Weather View 32 v70,2013-03-12 11:14:00,
2013-03-12 07:19:00,41.0,39.9,29.70,SSW,202,0.0,6.0,96,0.00,,,0.00,Weather View 32 v70,2013-03-12 11:19:00,
2013-03-12 07:24:00,41.0,39.9,29.69,SSW,202,0.0,6.0,96,0.00,,,0.00,Weather View 32 v70,2013-03-12 11:24:00,
2013-03-12 07:29:00,41.0,39.9,29.69,SSW,202,0.0,6.0,96,0.00,,,0.00,Weather View 32 v70,2013-03-12 11:29:00,
2013-03-12 07:34:00,41.0,39.9,29.69,WSW,247,0.0,6.0,96,0.00,,,0.00,Weather View 32 v70,2013-03-12 11:34:00,
2013-03-12 07:39:00,41.0,39.9,29.69,WSW,247,0.0,5.0,96,0.00,,,0.00,Weather View 32 v70,2013-03-12 11:39:00,
2013-03-12 07:44:00,41.0,39.9,29.69,West,270,0.0,5.0,96,0.00,,,0.00,Weather View 32 v70,2013-03-12 11:44:00,
2013-03-12 07:49:00,41.0,39.9,29.69,SE,135,1.0,5.0,96,0.00,,,0.00,Weather View 32 v70,2013-03-12 11:49:00,
2013-03-12 07:54:00,41.0,39.9,29.69,SE,135,0.0,5.0,96,0.00,,,0.00,Weather View 32 v70,2013-03-12 11:54:00,
2013-03-12 07:59:00,41.0,39.9,29.69,NE,45,0.0,5.0,96,0.00,,,0.00,Weather View 32 v70,2013-03-12 11:59:00,
2013-03-12 08:04:00,41.0,39.9,29.70,SE,135,0.0,5.0,96,0.00,,,0.00,Weather View 32 v70,2013-03-12 12:04:00,
2013-03-12 08:09:00,41.0,39.9,29.70,SE,135,0.0,4.0,96,0.00,,,0.00,Weather View 32 v70,2013-03-12 12:09:00,
2013-03-12 08:14:00,42.0,40.9,29.69,South,180,0.0,3.0,96,0.00,,,0.00,Weather View 32 v70,2013-03-12 12:14:00,
2013-03-12 08:19:00,41.0,39.9,29.69,South,180,0.0,3.0,96,0.00,,,0.00,Weather View 32 v70,2013-03-12 12:19:00,
2013-03-12 08:24:00,42.0,40.9,29.69,South,180,0.0,3.0,96,0.00,,,0.00,Weather View 32 v70,2013-03-12 12:24:00,
2013-03-12 08:29:00,42.0,40.9,29.69,South,180,0.0,3.0,96,0.00,,,0.00,Weather View 32 v70,2013-03-12 12:29:00,
2013-03-12 08:34:00,42.0,40.9,29.68,East,90,0.0,3.0,96,0.00,,,0.00,Weather View 32 v70,2013-03-12 12:34:00,
2013-03-12 08:39:00,42.0,40.9,29.68,East,90,0.0,3.0,96,0.00,,,0.00,Weather View 32 v70,2013-03-12 12:39:00,
2013-03-12 08:44:00,42.0,40.9,29.68,East,90,0.0,3.0,96,0.00,,,0.00,Weather View 32 v70,2013-03-12 12:44:00,
2013-03-12 08:49:00,42.0,40.9,29.68,East,90,0.0,3.0,96,0.00,,,0.00,Weather View 32 v70,2013-03-12 12:49:00,
2013-03-12 08:54:00,42.0,40.9,29.68,East,90,1.0,3.0,96,0.00,,,0.00,Weather View 32 v70,2013-03-12 12:54:00,
2013-03-12 08:59:00,42.0,40.9,29.68,East,90,0.0,3.0,96,0.00,,,0.00,Weather View 32 v70,2013-03-12 12:59:00,
2013-03-12 09:04:00,43.0,41.9,29.68,SE,135,0.0,2.0,96,0.00,,,0.00,Weather View 32 v70,2013-03-12 13:04:00,
2013-03-12 09:10:00,43.0,41.9,29.68,SE,135,0.0,3.0,96,0.00,,,0.00,Weather View 32 v70,2013-03-12 13:10:00,
2013-03-12 09:19:00,43.0,41.9,29.68,South,180,4.0,4.0,96,0.00,,,0.00,Weather View 32 v70,2013-03-12 13:19:00,
2013-03-12 09:24:00,43.0,41.9,29.68,South,180,0.0,6.0,96,0.00,,,0.00,Weather View 32 v70,2013-03-12 13:24:00,
2013-03-12 09:30:00,43.0,41.9,29.68,South,180,0.0,6.0,96,0.00,,,0.00,Weather View 32 v70,2013-03-12 13:30:00,
2013-03-12 09:35:00,43.0,41.9,29.68,SW,225,0.0,6.0,96,0.00,,,0.00,Weather View 32 v70,2013-03-12 13:35:00,
2013-03-12 09:44:00,43.0,41.9,29.68,South,180,1.0,6.0,96,0.00,,,0.00,Weather View 32 v70,2013-03-12 13:44:00,
2013-03-12 09:50:00,44.0,43.2,29.68,SE,135,0.0,6.0,97,0.00,,,0.00,Weather View 32 v70,2013-03-12 13:50:00,
2013-03-12 09:55:00,44.0,43.2,29.67,SSE,157,3.0,7.0,97,0.00,,,0.00,Weather View 32 v70,2013-03-12 13:55:00,
2013-03-12 10:04:00,44.0,43.2,29.67,SSW,202,4.0,7.0,97,0.00,,,0.00,Weather View 32 v70,2013-03-12 14:04:00,
2013-03-12 10:10:00,44.0,43.2,29.67,SSE,157,4.0,7.0,97,0.00,,,0.00,Weather View 32 v70,2013-03-12 14:10:00,
2013-03-12 10:15:00,45.0,44.2,29.66,SE,135,1.0,7.0,97,0.00,,,0.00,Weather View 32 v70,2013-03-12 14:15:00,
2013-03-12 10:24:00,45.0,44.2,29.65,SE,135,0.0,7.0,97,0.00,,,0.00,Weather View 32 v70,2013-03-12 14:24:00,
2013-03-12 10:30:00,45.0,44.2,29.65,South,180,3.0,7.0,97,0.00,,,0.00,Weather View 32 v70,2013-03-12 14:30:00,
2013-03-12 10:40:00,45.0,44.2,29.65,SSE,157,3.0,7.0,97,0.00,,,0.00,Weather View 32 v70,2013-03-12 14:40:00,
2013-03-12 10:49:00,46.0,45.2,29.65,SE,135,2.0,7.0,97,0.00,,,0.00,Weather View 32 v70,2013-03-12 14:49:00,
2013-03-12 10:55:00,46.0,45.2,29.65,South,180,1.0,7.0,97,0.00,,,0.00,Weather View 32 v70,2013-03-12 14:55:00,
2013-03-12 11:00:00,46.0,45.2,29.64,SSE,157,2.0,7.0,97,0.00,,,0.00,Weather View 32 v70,2013-03-12 15:00:00,
2013-03-12 11:09:00,47.0,46.2,29.63,South,180,4.0,7.0,97,0.00,,,0.00,Weather View 32 v70,2013-03-12 15:09:00,
2013-03-12 11:15:00,47.0,46.2,29.63,South,180,6.0,7.0,97,0.00,,,0.00,Weather View 32 v70,2013-03-12 15:15:00,
2013-03-12 11:20:00,47.0,46.2,29.63,SE,135,0.0,7.0,97,0.00,,,0.00,Weather View 32 v70,2013-03-12 15:20:00,
2013-03-12 11:29:00,48.0,47.2,29.63,SE,135,0.0,7.0,97,0.00,,,0.00,Weather View 32 v70,2013-03-12 15:29:00,
2013-03-12 11:34:00,48.0,47.2,29.63,SE,135,4.0,7.0,97,0.00,,,0.00,Weather View 32 v70,2013-03-12 15:34:00,
2013-03-12 11:40:00,49.0,48.2,29.63,South,180,1.0,8.0,97,0.00,,,0.00,Weather View 32 v70,2013-03-12 15:40:00,
2013-03-12 11:45:00,49.0,48.2,29.63,SE,135,6.0,8.0,97,0.00,,,0.00,Weather View 32 v70,2013-03-12 15:45:00,
2013-03-12 11:54:00,49.0,48.2,29.61,SW,225,3.0,9.0,97,0.00,,,0.00,Weather View 32 v70,2013-03-12 15:54:00,
2013-03-12 12:00:00,50.0,49.2,29.61,SE,135,5.0,10.0,97,0.00,,,0.00,Weather View 32 v70,2013-03-12 16:00:00,
2013-03-12 12:05:00,50.0,49.2,29.61,SE,135,5.0,10.0,97,0.00,,,0.00,Weather View 32 v70,2013-03-12 16:05:00,
2013-03-12 12:14:00,50.0,49.2,29.60,SE,135,8.0,10.0,97,0.00,,,0.00,Weather View 32 v70,2013-03-12 16:14:00,
2013-03-12 12:20:00,51.0,50.2,29.59,SE,135,2.0,10.0,97,0.00,,,0.00,Weather View 32 v70,2013-03-12 16:20:00,
2013-03-12 12:25:00,51.0,50.2,29.59,NW,315,5.0,10.0,97,0.00,,,0.00,Weather View 32 v70,2013-03-12 16:25:00,
2013-03-12 12:31:00,51.0,50.2,29.59,SW,225,2.0,10.0,97,0.00,,,0.00,Weather View 32 v70,2013-03-12 16:31:00,
2013-03-12 12:39:00,51.0,49.9,29.59,South,180,6.0,10.0,96,0.00,,,0.00,Weather View 32 v70,2013-03-12 16:39:00,
2013-03-12 12:45:00,51.0,49.6,29.59,South,180,6.0,10.0,95,0.00,,,0.00,Weather View 32 v70,2013-03-12 16:45:00,
2013-03-12 12:50:00,51.0,49.6,29.58,SSE,157,5.0,10.0,95,0.00,,,0.00,Weather View 32 v70,2013-03-12 16:50:00,
2013-03-12 12:59:00,52.0,50.3,29.57,East,90,2.0,10.0,94,0.00,,,0.00,Weather View 32 v70,2013-03-12 16:59:00,
2013-03-12 13:05:00,52.0,50.3,29.57,SSE,157,5.0,10.0,94,0.00,,,0.00,Weather View 32 v70,2013-03-12 17:05:00,
2013-03-12 13:10:00,52.0,50.3,29.57,SSE,157,5.0,10.0,94,0.00,,,0.00,Weather View 32 v70,2013-03-12 17:10:00,
2013-03-12 13:19:00,52.0,50.3,29.57,South,180,0.0,10.0,94,0.00,,,0.00,Weather View 32 v70,2013-03-12 17:19:00,
2013-03-12 13:25:00,52.0,50.3,29.57,West,270,0.0,10.0,94,0.00,,,0.00,Weather View 32 v70,2013-03-12 17:25:00,
2013-03-12 13:30:00,52.0,50.3,29.56,SE,135,3.0,10.0,94,0.00,,,0.00,Weather View 32 v70,2013-03-12 17:30:00,
2013-03-12 13:35:00,52.0,50.3,29.56,East,90,1.0,10.0,94,0.00,,,0.00,Weather View 32 v70,2013-03-12 17:35:00,
2013-03-12 13:44:00,52.0,50.3,29.56,SE,135,6.0,10.0,94,0.00,,,0.00,Weather View 32 v70,2013-03-12 17:44:00,
2013-03-12 13:50:00,52.0,50.3,29.55,SSE,157,2.0,10.0,94,0.00,,,0.00,Weather View 32 v70,2013-03-12 17:50:00,
2013-03-12 13:55:00,52.0,50.0,29.55,ESE,112,1.0,10.0,93,0.00,,,0.00,Weather View 32 v70,2013-03-12 17:55:00,
2013-03-12 14:05:00,53.0,50.7,29.55,East,90,1.0,10.0,92,0.00,,,0.00,Weather View 32 v70,2013-03-12 18:05:00,
2013-03-12 14:10:00,53.0,50.7,29.54,SW,225,5.0,10.0,92,0.00,,,0.00,Weather View 32 v70,2013-03-12 18:10:00,
2013-03-12 14:15:00,53.0,50.4,29.54,SE,135,6.0,10.0,91,0.00,,,0.00,Weather View 32 v70,2013-03-12 18:15:00,
2013-03-12 14:24:00,53.0,50.4,29.54,SE,135,5.0,10.0,91,0.00,,,0.00,Weather View 32 v70,2013-03-12 18:24:00,
2013-03-12 14:30:00,53.0,50.4,29.53,SE,135,2.0,10.0,91,0.00,,,0.00,Weather View 32 v70,2013-03-12 18:30:00,
2013-03-12 14:35:00,53.0,50.4,29.53,South,180,1.0,10.0,91,0.00,,,0.00,Weather View 32 v70,2013-03-12 18:35:00,
2013-03-12 14:44:00,53.0,51.0,29.53,South,180,0.0,10.0,93,0.00,,,0.00,Weather View 32 v70,2013-03-12 18:44:00,
2013-03-12 14:50:00,52.0,50.6,29.52,ESE,112,1.0,10.0,95,0.00,,,0.00,Weather View 32 v70,2013-03-12 18:50:00,
2013-03-12 14:55:00,52.0,50.6,29.52,NE,45,0.0,10.0,95,0.00,,,0.00,Weather View 32 v70,2013-03-12 18:55:00,
2013-03-12 15:04:00,51.0,50.2,29.52,SW,225,2.0,10.0,97,0.01,,,0.01,Weather View 32 v70,2013-03-12 19:04:00,
2013-03-12 15:10:00,51.0,50.2,29.52,South,180,0.0,9.0,97,0.01,,,0.01,Weather View 32 v70,2013-03-12 19:10:00,
2013-03-12 15:15:00,51.0,50.2,29.52,SE,135,2.0,9.0,97,0.01,,,0.01,Weather View 32 v70,2013-03-12 19:15:00,
2013-03-12 15:24:00,50.0,49.2,29.51,South,180,0.0,9.0,97,0.01,,,0.01,Weather View 32 v70,2013-03-12 19:24:00,
2013-03-12 15:30:00,50.0,49.2,29.51,South,180,1.0,9.0,97,0.01,,,0.01,Weather View 32 v70,2013-03-12 19:30:00,
2013-03-12 15:35:00,50.0,49.2,29.51,SE,135,3.0,9.0,97,0.01,,,0.01,Weather View 32 v70,2013-03-12 19:35:00,
2013-03-12 15:40:00,50.0,49.2,29.51,SE,135,0.0,7.0,97,0.01,,,0.01,Weather View 32 v70,2013-03-12 19:40:00,
2013-03-12 15:49:00,50.0,49.2,29.50,SW,225,1.0,6.0,97,0.01,,,0.01,Weather View 32 v70,2013-03-12 19:49:00,
2013-03-12 15:55:00,50.0,49.2,29.50,SW,225,0.0,6.0,97,0.01,,,0.01,Weather View 32 v70,2013-03-12 19:55:00,
2013-03-12 16:00:00,50.0,49.2,29.50,SE,135,4.0,7.0,97,0.00,,,0.01,Weather View 32 v70,2013-03-12 20:00:00,
2013-03-12 16:09:00,50.0,49.2,29.49,SE,135,5.0,8.0,97,0.01,,,0.02,Weather View 32 v70,2013-03-12 20:09:00,
2013-03-12 16:15:00,51.0,50.2,29.49,ESE,112,6.0,8.0,97,0.01,,,0.02,Weather View 32 v70,2013-03-12 20:15:00,
2013-03-12 16:20:00,51.0,50.2,29.49,SE,135,0.0,9.0,97,0.01,,,0.02,Weather View 32 v70,2013-03-12 20:20:00,
2013-03-12 16:29:00,51.0,50.2,29.48,SE,135,4.0,9.0,97,0.01,,,0.02,Weather View 32 v70,2013-03-12 20:29:00,
2013-03-12 16:34:00,51.0,50.2,29.48,SE,135,2.0,10.0,97,0.01,,,0.02,Weather View 32 v70,2013-03-12 20:34:00,
2013-03-12 16:40:00,51.0,50.2,29.47,South,180,5.0,10.0,97,0.01,,,0.02,Weather View 32 v70,2013-03-12 20:40:00,
2013-03-12 16:45:00,51.0,50.2,29.47,SSW,202,4.0,10.0,97,0.01,,,0.02,Weather View 32 v70,2013-03-12 20:45:00,
2013-03-12 16:54:00,51.0,50.2,29.47,South,180,6.0,13.0,97,0.01,,,0.02,Weather View 32 v70,2013-03-12 20:54:00,
2013-03-12 17:00:00,51.0,50.2,29.46,SW,225,4.0,13.0,97,0.01,,,0.02,Weather View 32 v70,2013-03-12 21:00:00,
2013-03-12 17:05:00,51.0,50.2,29.46,South,180,7.0,13.0,97,0.01,,,0.02,Weather View 32 v70,2013-03-12 21:05:00,
2013-03-12 17:14:00,51.0,50.2,29.45,SE,135,8.0,13.0,97,0.01,,,0.03,Weather View 32 v70,2013-03-12 21:14:00,
2013-03-12 17:20:00,51.0,50.2,29.45,East,90,5.0,13.0,97,0.01,,,0.03,Weather View 32 v70,2013-03-12 21:20:00,
2013-03-12 17:25:00,51.0,50.2,29.45,SE,135,5.0,13.0,97,0.02,,,0.04,Weather View 32 v70,2013-03-12 21:25:00,
2013-03-12 17:30:00,51.0,50.2,29.45,South,180,7.0,13.0,97,0.02,,,0.04,Weather View 32 v70,2013-03-12 21:30:00,
2013-03-12 17:40:00,51.0,50.2,29.44,West,270,1.0,13.0,97,0.02,,,0.04,Weather View 32 v70,2013-03-12 21:40:00,
2013-03-12 17:45:00,51.0,50.2,29.44,SE,135,0.0,13.0,97,0.02,,,0.04,Weather View 32 v70,2013-03-12 21:45:00,
2013-03-12 17:50:00,51.0,50.2,29.43,NE,45,1.0,13.0,97,0.02,,,0.04,Weather View 32 v70,2013-03-12 21:50:00,
2013-03-12 18:00:00,51.0,50.2,29.43,West,270,6.0,13.0,97,0.03,,,0.05,Weather View 32 v70,2013-03-12 22:00:00,
2013-03-12 18:05:00,51.0,50.2,29.43,SE,135,3.0,13.0,97,0.04,,,0.06,Weather View 32 v70,2013-03-12 22:05:00,
2013-03-12 18:10:00,51.0,50.2,29.43,South,180,5.0,13.0,97,0.05,,,0.07,Weather View 32 v70,2013-03-12 22:10:00,
2013-03-12 18:19:00,51.0,50.2,29.42,WSW,247,2.0,15.0,97,0.06,,,0.09,Weather View 32 v70,2013-03-12 22:19:00,
2013-03-12 18:24:00,51.0,50.2,29.42,SW,225,6.0,15.0,97,0.06,,,0.10,Weather View 32 v70,2013-03-12 22:24:00,
2013-03-12 18:29:00,51.0,50.2,29.41,SE,135,6.0,15.0,97,0.06,,,0.10,Weather View 32 v70,2013-03-12 22:29:00,
2013-03-12 18:35:00,51.0,50.2,29.41,SSE,157,2.0,15.0,97,0.07,,,0.11,Weather View 32 v70,2013-03-12 22:35:00,
2013-03-12 18:40:00,51.0,50.2,29.41,SE,135,6.0,15.0,97,0.07,,,0.11,Weather View 32 v70,2013-03-12 22:40:00,
2013-03-12 18:45:00,51.0,50.2,29.41,South,180,6.0,15.0,97,0.08,,,0.12,Weather View 32 v70,2013-03-12 22:45:00,
2013-03-12 18:50:00,51.0,50.2,29.41,SSW,202,5.0,15.0,97,0.09,,,0.13,Weather View 32 v70,2013-03-12 22:50:00,
2013-03-12 18:55:00,51.0,50.2,29.41,South,180,7.0,15.0,97,0.09,,,0.14,Weather View 32 v70,2013-03-12 22:55:00,
2013-03-12 19:00:00,51.0,50.2,29.40,SW,225,2.0,15.0,97,0.10,,,0.15,Weather View 32 v70,2013-03-12 23:00:00,
2013-03-12 19:09:00,51.0,50.2,29.40,SE,135,7.0,15.0,97,0.12,,,0.19,Weather View 32 v70,2013-03-12 23:09:00,
2013-03-12 19:14:00,51.0,50.2,29.40,SE,135,6.0,15.0,97,0.12,,,0.20,Weather View 32 v70,2013-03-12 23:14:00,
2013-03-12 19:19:00,51.0,50.2,29.39,South,180,2.0,15.0,97,0.13,,,0.22,Weather View 32 v70,2013-03-12 23:19:00,
2013-03-12 19:24:00,51.0,50.2,29.39,NNW,337,1.0,15.0,97,0.14,,,0.24,Weather View 32 v70,2013-03-12 23:24:00,
2013-03-12 19:29:00,51.0,50.2,29.38,SSW,202,5.0,15.0,97,0.14,,,0.24,Weather View 32 v70,2013-03-12 23:29:00,
2013-03-12 19:34:00,51.0,50.2,29.38,SE,135,6.0,13.0,97,0.14,,,0.25,Weather View 32 v70,2013-03-12 23:34:00,
2013-03-12 19:40:00,51.0,50.2,29.38,SE,135,3.0,13.0,97,0.15,,,0.26,Weather View 32 v70,2013-03-12 23:40:00,
2013-03-12 19:45:00,51.0,50.2,29.38,SSE,157,9.0,13.0,97,0.15,,,0.27,Weather View 32 v70,2013-03-12 23:45:00,
2013-03-12 19:50:00,51.0,50.2,29.37,SE,135,6.0,13.0,97,0.15,,,0.28,Weather View 32 v70,2013-03-12 23:50:00,
2013-03-12 19:55:00,51.0,50.2,29.37,ESE,112,2.0,13.0,97,0.15,,,0.29,Weather View 32 v70,2013-03-12 23:55:00,
2013-03-12 20:00:00,51.0,50.2,29.35,South,180,5.0,13.0,97,0.15,,,0.30,Weather View 32 v70,2013-03-13 00:00:00,
2013-03-12 20:05:00,51.0,50.2,29.35,South,180,7.0,13.0,97,0.14,,,0.31,Weather View 32 v70,2013-03-13 00:05:00,
2013-03-12 20:10:00,51.0,50.2,29.35,South,180,5.0,13.0,97,0.13,,,0.32,Weather View 32 v70,2013-03-13 00:10:00,
2013-03-12 20:15:00,52.0,51.2,29.35,South,180,5.0,13.0,97,0.14,,,0.34,Weather View 32 v70,2013-03-13 00:15:00,
2013-03-12 20:20:00,52.0,51.2,29.35,SE,135,4.0,13.0,97,0.14,,,0.36,Weather View 32 v70,2013-03-13 00:20:00,
2013-03-12 20:25:00,52.0,51.2,29.35,South,180,6.0,14.0,97,0.12,,,0.36,Weather View 32 v70,2013-03-13 00:25:00,
2013-03-12 20:34:00,52.0,51.2,29.34,South,180,4.0,14.0,97,0.12,,,0.37,Weather View 32 v70,2013-03-13 00:34:00,
2013-03-12 20:40:00,52.0,51.2,29.34,South,180,8.0,14.0,97,0.12,,,0.38,Weather View 32 v70,2013-03-13 00:40:00,
2013-03-12 20:45:00,52.0,51.2,29.34,South,180,2.0,14.0,97,0.11,,,0.38,Weather View 32 v70,2013-03-13 00:45:00,
2013-03-12 20:50:00,52.0,51.2,29.34,NE,45,5.0,14.0,97,0.10,,,0.38,Weather View 32 v70,2013-03-13 00:50:00,
2013-03-12 20:55:00,52.0,51.2,29.34,SE,135,2.0,14.0,97,0.09,,,0.38,Weather View 32 v70,2013-03-13 00:55:00,
2013-03-12 21:00:00,52.0,51.2,29.34,East,90,2.0,14.0,97,0.09,,,0.39,Weather View 32 v70,2013-03-13 01:00:00,
2013-03-12 21:05:00,52.0,51.2,29.34,West,270,7.0,14.0,97,0.08,,,0.39,Weather View 32 v70,2013-03-13 01:05:00,
2013-03-12 21:10:00,52.0,51.2,29.34,North,360,4.0,14.0,97,0.07,,,0.39,Weather View 32 v70,2013-03-13 01:10:00,
2013-03-12 21:15:00,52.0,51.2,29.34,North,360,7.0,14.0,97,0.05,,,0.39,Weather View 32 v70,2013-03-13 01:15:00,
2013-03-12 21:20:00,52.0,51.2,29.34,WNW,292,7.0,14.0,97,0.03,,,0.39,Weather View 32 v70,2013-03-13 01:20:00,
2013-03-12 21:25:00,52.0,51.2,29.34,North,360,6.0,17.0,97,0.03,,,0.39,Weather View 32 v70,2013-03-13 01:25:00,
2013-03-12 21:30:00,52.0,51.2,29.34,ESE,112,6.0,17.0,97,0.02,,,0.39,Weather View 32 v70,2013-03-13 01:30:00,
2013-03-12 21:35:00,52.0,51.2,29.34,NE,45,6.0,17.0,97,0.02,,,0.39,Weather View 32 v70,2013-03-13 01:35:00,
2013-03-12 21:44:00,52.0,51.2,29.34,WNW,292,8.0,17.0,97,0.01,,,0.39,Weather View 32 v70,2013-03-13 01:44:00,
2013-03-12 21:49:00,52.0,51.2,29.35,West,270,8.0,17.0,97,0.01,,,0.39,Weather View 32 v70,2013-03-13 01:49:00,
2013-03-12 21:54:00,52.0,51.2,29.35,ESE,112,3.0,17.0,97,0.02,,,0.40,Weather View 32 v70,2013-03-13 01:54:00,
2013-03-12 21:59:00,52.0,51.2,29.35,West,270,5.0,17.0,97,0.01,,,0.40,Weather View 32 v70,2013-03-13 01:59:00,
2013-03-12 22:04:00,52.0,51.2,29.35,WNW,292,9.0,17.0,97,0.01,,,0.40,Weather View 32 v70,2013-03-13 02:04:00,
2013-03-12 22:09:00,52.0,51.2,29.35,West,270,3.0,17.0,97,0.01,,,0.40,Weather View 32 v70,2013-03-13 02:09:00,
2013-03-12 22:14:00,52.0,51.2,29.35,WSW,247,3.0,17.0,97,0.01,,,0.40,Weather View 32 v70,2013-03-13 02:14:00,
2013-03-12 22:19:00,52.0,51.2,29.35,North,360,5.0,17.0,97,0.01,,,0.40,Weather View 32 v70,2013-03-13 02:19:00,
2013-03-12 22:24:00,52.0,51.2,29.35,North,360,1.0,17.0,97,0.01,,,0.40,Weather View 32 v70,2013-03-13 02:24:00,
2013-03-12 22:29:00,52.0,51.2,29.35,West,270,7.0,15.0,97,0.01,,,0.40,Weather View 32 v70,2013-03-13 02:29:00,
2013-03-12 22:34:00,52.0,51.2,29.35,West,270,6.0,15.0,97,0.01,,,0.40,Weather View 32 v70,2013-03-13 02:34:00,
2013-03-12 22:39:00,52.0,51.2,29.35,West,270,7.0,14.0,97,0.01,,,0.40,Weather View 32 v70,2013-03-13 02:39:00,
2013-03-12 22:45:00,52.0,51.2,29.35,NNW,337,3.0,14.0,97,0.01,,,0.40,Weather View 32 v70,2013-03-13 02:45:00,
2013-03-12 22:50:00,52.0,51.2,29.35,West,270,5.0,14.0,97,0.01,,,0.40,Weather View 32 v70,2013-03-13 02:50:00,
2013-03-12 22:55:00,52.0,51.2,29.35,NW,315,6.0,14.0,97,0.00,,,0.40,Weather View 32 v70,2013-03-13 02:55:00,
2013-03-12 23:04:00,51.0,50.2,29.34,North,360,4.0,12.0,97,0.00,,,0.40,Weather View 32 v70,2013-03-13 03:04:00,
2013-03-12 23:09:00,51.0,50.2,29.34,WNW,292,2.0,12.0,97,0.00,,,0.40,Weather View 32 v70,2013-03-13 03:09:00,
2013-03-12 23:14:00,51.0,50.2,29.34,West,270,2.0,11.0,97,0.00,,,0.40,Weather View 32 v70,2013-03-13 03:14:00,
2013-03-12 23:19:00,51.0,50.2,29.35,West,270,3.0,11.0,97,0.00,,,0.40,Weather View 32 v70,2013-03-13 03:19:00,
2013-03-12 23:24:00,51.0,50.2,29.35,West,270,5.0,11.0,97,0.00,,,0.40,Weather View 32 v70,2013-03-13 03:24:00,
2013-03-12 23:29:00,51.0,50.2,29.35,NW,315,1.0,11.0,97,0.00,,,0.40,Weather View 32 v70,2013-03-13 03:29:00,
2013-03-12 23:34:00,51.0,50.2,29.35,NW,315,1.0,11.0,97,0.00,,,0.40,Weather View 32 v70,2013-03-13 03:34:00,
2013-03-12 23:39:00,51.0,50.2,29.35,NNW,337,4.0,11.0,97,0.00,,,0.40,Weather View 32 v70,2013-03-13 03:39:00,
2013-03-12 23:44:00,51.0,50.2,29.35,West,270,4.0,11.0,97,0.00,,,0.40,Weather View 32 v70,2013-03-13 03:44:00,
2013-03-12 23:49:00,51.0,50.2,29.35,West,270,7.0,11.0,97,0.00,,,0.40,Weather View 32 v70,2013-03-13 03:49:00,
2013-03-12 23:54:00,51.0,50.2,29.35,West,270,5.0,11.0,97,0.00,,,0.40,Weather View 32 v70,2013-03-13 03:54:00,